Regional Weather Roundup
Issued by NWS Charleston, SC

Current Version | Previous Version | Text Only | Print | Product List | Glossary Off
Versions: 1 2 3 4 5 6 7 8 9 10 11 12 13 14 15 16 17 18 19 20 21 22 23 24 25 26 27 28 29 30 31 32 33 34 35 36 37 38 39 40 41 42 43 44 45 46 47 48 49 50

000
ASUS42 KCHS 240427
RWRCHS

REGIONAL WEATHER ROUNDUP
NATIONAL WEATHER SERVICE CHARLESTON SC
1200 AM EDT SUN MAY 24 2015

NOTE: "FAIR" INDICATES FEW OR NO CLOUDS BELOW 12,000 FEET WITH NO
SIGNIFICANT WEATHER AND/OR OBSTRUCTIONS TO VISIBILITY.

NOT ALL STATIONS ARE QUALITY CONTROLLED BY THE NATIONAL
WEATHER SERVICE. USE DATA WITH CAUTION...ESPECIALLY
DEWPOINT OBSERVATIONS.

SCZ027-030-031-034>040-042>050-240500-
...SOUTHEAST SOUTH CAROLINA...

CITY           SKY/WX    TMP DP  RH WIND       PRES   REMARKS
N CHARLESTON   CLEAR     66  61  84 NE5       30.35S
WATERFRONT PAR   N/A     74  62  66 E14       30.33S
MOUNT PLEASANT FAIR      72  57  60 E5        30.35F
JOHNS ISLAND   CLEAR     73  59  60 E10       30.35F
PINOPOLIS        N/A     72  63  73 E7        30.27F
MONCKS CORNER  FAIR      68  61  77 E6        30.36S
SUMMERVILLE    FAIR      63  61  94 CALM      30.36S
BEAUFORT MCAS  PTCLDY    73  61  65 E7        30.34S
BEAUFORT ARPT  FAIR      72  63  73 E8        30.33S
HILTON HEAD IS PTCLDY    75  63  64 E9        30.34S
WALTERBORO     CLEAR     63  59  88 E5        30.36S
ALLENDALE      FAIR      68  61  77 E5        30.34S

...SOUTHERN MIDLANDS AND PEE DEE...

CITY           SKY/WX    TMP DP  RH WIND       PRES   REMARKS
GEORGETOWN     NOT AVBL
KINGSTREE      NOT AVBL
ORANGEBURG     CLEAR     66  57  72 SE3       30.36S
BARNWELL       FAIR      70  61  73 E6        30.36S
AIKEN          FAIR      64  52  63 SE6       30.38F
MANNING        FAIR      59  52  77 CALM      30.36F
COLUMBIA       CLEAR     67  51  56 NE3       30.35S
SUMTER         CLEAR     65  55  69 SE2       30.35S
FLORENCE       CLEAR     64  55  72 CALM      30.38R
MYRTLE BEACH   CLEAR     72  59  64 E13       30.38F
N MYRTLE BEACH CLEAR     73  59  61 SE6       30.37S

$$

GAZ063-065-086>088-099>101-113>116-118-119-134>141-150-240500-
...SOUTHEAST GEORGIA...

CITY           SKY/WX    TMP DP  RH WIND       PRES   REMARKS
SAVANNAH ARPT  PTCLDY    69  61  75 NE3       30.33S
HUNTER AAF     MOCLDY    74  63  68 E12       30.30S
FORT STEWART   NOT AVBL
STATESBORO     PTCLDY    69  64  85 CALM      30.33S
SYLVANIA       PTCLDY    68  64  85 E5        30.34F
CLAXTON        FAIR      66  63  88 CALM      30.32S

...CSRA...CENTRAL AND FAR SOUTHEAST GEORGIA...

CITY           SKY/WX    TMP DP  RH WIND       PRES   REMARKS
THOMSON        CLEAR     69  57  65 SE3       30.38S
AUGUSTA-BUSH   CLEAR     65  55  70 SE3       30.34R
AUGUSTA-DANIEL CLEAR     71  53  52 SE6       30.35R
SWAINSBORO     FAIR      72  63  73 E5        30.33S
VIDALIA        CLEAR     68  63  83 E7        30.32S
EASTMAN        FAIR      71  65  81 E5        30.33S
HAZLEHURST     FAIR      72  65  78 E7        30.30S
ALMA           PTCLDY    70  64  81 VRB3      30.29S
WAYCROSS       MOCLDY    71  67  88 E7        30.28F
JESUP          MOCLDY    72  68  88 E3        30.30S
BAXLEY         FAIR      70  64  83 E3        30.30S
BRUNSWICK      MOCLDY    73  68  83 NE6       30.29S
SAINT SIMONS   NOT AVBL

$$

SCZ027-028-034-036>038-045-046-048>050-GAZ119-141-240500-
...LAKE AND SUPPLEMENTAL COASTAL OBSERVATIONS...

STATION/POSITION TIME  TEMP    WIND        PRES    WAVE   SWELL
                       AIR SEA DIR/SP/G            HT/PER HT/PER/DIR
                 (UTC) (F)     (DEG/KT/KT) (MB)    (FT/S) (FT/S/D)
UPR LAKE MARION  NOT AVBL
WINYAH BAY       0245   72      90/ 11     1027.0
LAKE MURRAY      0300   72     120/  8/ 12 1027.1R
ACE BASIN NERRS  NOT AVBL
FORT PULASKI     0400   75 78   90/ 19/ 21 1027.2F
SAPELO ISLAND    0300   75      70/ 11     1026.0S

$$

ANZ835-935-AMZ111-154-330-350-352-354-370-450-454-472-240500-
...C-MAN AND BUOY OBSERVATIONS...

STATION/POSITION TIME  TEMP    WIND        PRES    WAVE   SWELL
                       AIR SEA DIR/SP/G            HT/PER HT/PER/DIR
                 (UTC) (F)     (DEG/KT/KT) (MB)    (FT/S) (FT/S/D)
BUOY 41004       0350   75 75   90/ 17/ 19 1027.0S   5/ 6   2/15
BUOY 41008       0350   75 75   90/ 14/ 17 1026.0F   5/ 6   2/100/ 7
FOLLY BEACH CMAN 0400   74      90/ 15/ 17 1027.7F
CAPERS NEARSHORE 0308   74     110/ 16/ 19 1027.8R
FRIPP NEARSHORE  0300   75     110/ 16/ 17 1026.2R


STATION/POSITION TIME  TEMP    WIND        PRES    WAVE   SWELL
                       AIR SEA DIR/SP/G            HT/PER HT/PER/DIR
                 (UTC) (F)     (DEG/KT/KT) (MB)    (FT/S) (FT/S/D)
5E ST. MARYS GA  0321      78                N/A     4/ 6
FRYING PAN BUOY  0350   75 74  110/ 14/ 17 1028.7F   4/ 6   2/ 80/ 7
BUOY 41025       0350   72 78  100/  6/ 10 1029.3F   3/ 6   3/ 40/ 6
CAPE LOOKOUT NC  0400   70      60/ 10/ 12 1029.1F
BUOY 41002       0350   72 74   80/ 21/ 25 1027.4F   7/ 6
BUOY 41010       0320   78 80   60/ 19/ 21 1023.9S
ST AUGUSTINE FL  0400   76 76   90/ 18/ 20 1025.2F


$$


USA.gov is the U.S. government's official web portal to all federal, state and local government web resources and services.